DAL4221 KDEN-KLAX

Flight info

Callsign DAL4221
Flight time 1h 52m
Altitude 38000
Route BAYLR6 TEHRU JASSE Q90 DNERO ANJLL4
Aircraft A339/H-SADE1E2E3GHIJ3J5M1P2RWXY/LB2D1

Departure

Time 2026-04-21 05:57
Airport Denver International Airport (KDEN)

Arrival

Time 2026-04-21 07:49
Airport Los Angeles International Airport (KLAX)
Time Latitude Longitude Altitude Speed Heading
2026-04-21 05:27 39.85436 -104.67577 5392 ft 0 kts 179°
2026-04-21 05:42 39.85450 -104.67577 5383 ft 4 kts 179°
2026-04-21 05:43 39.85477 -104.67577 5380 ft 4 kts 180°
2026-04-21 05:43 39.85504 -104.67578 5380 ft 4 kts 180°
2026-04-21 05:43 39.85531 -104.67577 5383 ft 4 kts 180°
2026-04-21 05:43 39.85558 -104.67577 5380 ft 4 kts 181°
2026-04-21 05:44 39.85586 -104.67576 5383 ft 4 kts 181°
2026-04-21 05:44 39.85613 -104.67575 5383 ft 4 kts 181°
2026-04-21 05:44 39.85619 -104.67575 5384 ft 0 kts 180°
2026-04-21 05:47 39.85612 -104.67556 5386 ft 3 kts 120°
2026-04-21 05:47 39.85596 -104.67491 5386 ft 14 kts 101°
2026-04-21 05:47 39.85591 -104.67365 5388 ft 14 kts 91°
2026-04-21 05:47 39.85590 -104.67232 5386 ft 16 kts 90°
2026-04-21 05:48 39.85589 -104.67089 5386 ft 17 kts 90°
2026-04-21 05:48 39.85588 -104.66936 5386 ft 17 kts 90°
2026-04-21 05:48 39.85587 -104.66788 5386 ft 16 kts 91°
2026-04-21 05:48 39.85585 -104.66647 5386 ft 15 kts 90°
2026-04-21 05:49 39.85585 -104.66514 5387 ft 14 kts 90°
2026-04-21 05:49 39.85584 -104.66409 5391 ft 9 kts 90°
2026-04-21 05:49 39.85584 -104.66337 5394 ft 8 kts 90°
2026-04-21 05:49 39.85606 -104.66259 5389 ft 10 kts 44°
2026-04-21 05:50 39.85701 -104.66237 5387 ft 19 kts
2026-04-21 05:50 39.85841 -104.66235 5388 ft 21 kts
2026-04-21 05:50 39.85987 -104.66233 5388 ft 21 kts
2026-04-21 05:50 39.86133 -104.66231 5386 ft 21 kts
2026-04-21 05:51 39.86280 -104.66229 5387 ft 21 kts
2026-04-21 05:51 39.86410 -104.66228 5385 ft 17 kts
2026-04-21 05:51 39.86525 -104.66226 5386 ft 17 kts
2026-04-21 05:51 39.86652 -104.66225 5379 ft 20 kts
2026-04-21 05:52 39.86796 -104.66224 5375 ft 22 kts
2026-04-21 05:52 39.86954 -104.66222 5371 ft 23 kts
2026-04-21 05:52 39.87114 -104.66219 5366 ft 23 kts
2026-04-21 05:52 39.87281 -104.66219 5363 ft 25 kts 360°
2026-04-21 05:53 39.87443 -104.66216 5365 ft 20 kts
2026-04-21 05:53 39.87574 -104.66214 5366 ft 18 kts
2026-04-21 05:53 39.87677 -104.66214 5365 ft 14 kts 360°
2026-04-21 05:53 39.87751 -104.66162 5365 ft 12 kts 62°
2026-04-21 05:54 39.87755 -104.66055 5366 ft 12 kts 90°
2026-04-21 05:54 39.87755 -104.66018 5364 ft 0 kts 90°
2026-04-21 05:55 39.87754 -104.65978 5363 ft 15 kts 90°
2026-04-21 05:56 39.87748 -104.65534 5359 ft 84 kts 91°
2026-04-21 05:56 39.87743 -104.64487 5345 ft 145 kts 91°
2026-04-21 05:56 39.87729 -104.62983 5329 ft 189 kts 91°
2026-04-21 05:56 39.87720 -104.61169 5677 ft 201 kts 92°
2026-04-21 05:57 39.87698 -104.59314 6192 ft 209 kts 93°
2026-04-21 05:57 39.87651 -104.57433 6735 ft 211 kts 94°
2026-04-21 05:57 39.87577 -104.55522 7297 ft 212 kts 94°
2026-04-21 05:57 39.87451 -104.53613 7819 ft 212 kts 102°
2026-04-21 05:58 39.86813 -104.51920 8372 ft 209 kts 131°
2026-04-21 05:58 39.85627 -104.50856 8850 ft 210 kts 160°
2026-04-21 05:58 39.84175 -104.50670 9310 ft 212 kts 189°
2026-04-21 05:58 39.82831 -104.51416 9786 ft 212 kts 219°
2026-04-21 05:59 39.81934 -104.52897 10226 ft 209 kts 248°
2026-04-21 05:59 39.81594 -104.54732 10650 ft 210 kts 262°
2026-04-21 05:59 39.81360 -104.56636 10975 ft 220 kts 262°
2026-04-21 06:00 39.80893 -104.60723 11691 ft 235 kts 263°
2026-04-21 06:00 39.80665 -104.62846 12073 ft 240 kts 263°
2026-04-21 06:00 39.80442 -104.65012 12504 ft 243 kts 263°
2026-04-21 06:00 39.80226 -104.67202 12944 ft 245 kts 263°
2026-04-21 06:01 39.80018 -104.69415 13277 ft 251 kts 264°
2026-04-21 06:01 39.79813 -104.71670 13561 ft 258 kts 264°
2026-04-21 06:01 39.79591 -104.74012 13891 ft 263 kts 262°
2026-04-21 06:01 39.79274 -104.76378 14191 ft 268 kts 259°
2026-04-21 06:02 39.78885 -104.78786 14468 ft 275 kts 258°
2026-04-21 06:02 39.78466 -104.81260 14653 ft 285 kts 257°
2026-04-21 06:02 39.78011 -104.83815 14855 ft 295 kts 257°
2026-04-21 06:02 39.77516 -104.86468 15039 ft 309 kts 256°
2026-04-21 06:03 39.76993 -104.89229 15235 ft 321 kts 256°
2026-04-21 06:03 39.76472 -104.92005 15439 ft 332 kts 256°
2026-04-21 06:03 39.75921 -104.94975 15663 ft 343 kts 256°
2026-04-21 06:03 39.75430 -104.98055 15901 ft 353 kts 258°
2026-04-21 06:04 39.74970 -105.01227 16214 ft 360 kts 259°
2026-04-21 06:04 39.74308 -105.04376 16615 ft 363 kts 249°
2026-04-21 06:04 39.73318 -105.07425 16972 ft 368 kts 245°
2026-04-21 06:04 39.72287 -105.10426 17410 ft 370 kts 245°
2026-04-21 06:05 39.71198 -105.13529 17834 ft 373 kts 245°
2026-04-21 06:05 39.70157 -105.16586 18253 ft 376 kts 246°
2026-04-21 06:05 39.69157 -105.19731 18712 ft 377 kts 247°
2026-04-21 06:05 39.68166 -105.22887 19134 ft 378 kts 248°
2026-04-21 06:06 39.67157 -105.26054 19516 ft 381 kts 247°
2026-04-21 06:06 39.66127 -105.29230 19939 ft 383 kts 247°
2026-04-21 06:06 39.65083 -105.32415 20328 ft 385 kts 248°
2026-04-21 06:06 39.64027 -105.35617 20732 ft 387 kts 248°
2026-04-21 06:07 39.62962 -105.38839 21087 ft 390 kts 248°
2026-04-21 06:07 39.61888 -105.42089 21495 ft 393 kts 248°
2026-04-21 06:07 39.60806 -105.45366 21891 ft 396 kts 248°
2026-04-21 06:07 39.59717 -105.48661 22295 ft 398 kts 248°
2026-04-21 06:08 39.58619 -105.51971 22722 ft 400 kts 248°
2026-04-21 06:08 39.57511 -105.55294 23123 ft 403 kts 248°
2026-04-21 06:08 39.56394 -105.58636 23533 ft 405 kts 248°
2026-04-21 06:08 39.55278 -105.62004 23880 ft 408 kts 250°
2026-04-21 06:09 39.54308 -105.65464 24221 ft 409 kts 252°
2026-04-21 06:09 39.53355 -105.68948 24575 ft 412 kts 252°
2026-04-21 06:09 39.52391 -105.72450 24930 ft 414 kts 252°
2026-04-21 06:09 39.51417 -105.75971 25267 ft 416 kts 252°
2026-04-21 06:10 39.50448 -105.79462 25601 ft 418 kts 252°
2026-04-21 06:10 39.49459 -105.83022 25938 ft 421 kts 252°
2026-04-21 06:10 39.48465 -105.86594 26274 ft 423 kts 252°
2026-04-21 06:10 39.47465 -105.90179 26597 ft 425 kts 252°
2026-04-21 06:11 39.46455 -105.93797 26923 ft 427 kts 252°
2026-04-21 06:11 39.45444 -105.97420 27260 ft 430 kts 252°
2026-04-21 06:11 39.44423 -106.01067 27627 ft 432 kts 252°
2026-04-21 06:11 39.43397 -106.04724 27979 ft 434 kts 252°
2026-04-21 06:12 39.42366 -106.08403 28318 ft 436 kts 252°
2026-04-21 06:12 39.41326 -106.12100 28668 ft 438 kts 252°
2026-04-21 06:12 39.40281 -106.15814 28980 ft 440 kts 252°
2026-04-21 06:12 39.39231 -106.19541 29319 ft 442 kts 253°
2026-04-21 06:13 39.38174 -106.23287 29667 ft 444 kts 253°
2026-04-21 06:13 39.37110 -106.27048 29979 ft 447 kts 253°
2026-04-21 06:13 39.36053 -106.30782 30285 ft 449 kts 253°
2026-04-21 06:13 39.34977 -106.34577 30562 ft 451 kts 253°
2026-04-21 06:14 39.33894 -106.38391 30795 ft 453 kts 253°
2026-04-21 06:14 39.32804 -106.42224 31015 ft 456 kts 252°
2026-04-21 06:14 39.31707 -106.46073 31232 ft 459 kts 252°
2026-04-21 06:14 39.30601 -106.49951 31454 ft 461 kts 252°
2026-04-21 06:15 39.29487 -106.53853 31661 ft 464 kts 252°
2026-04-21 06:15 39.28369 -106.57765 31842 ft 466 kts 252°
2026-04-21 06:15 39.27241 -106.61700 32025 ft 469 kts 252°
2026-04-21 06:15 39.26105 -106.65658 32269 ft 471 kts 252°
2026-04-21 06:16 39.24891 -106.69612 32502 ft 475 kts 248°
2026-04-21 06:16 39.23355 -106.73404 32730 ft 480 kts 241°
2026-04-21 06:16 39.21484 -106.76987 32905 ft 484 kts 234°
2026-04-21 06:16 39.19443 -106.80452 33082 ft 486 kts 235°
2026-04-21 06:17 39.17410 -106.83935 33244 ft 487 kts 235°
2026-04-21 06:17 39.15376 -106.87442 33398 ft 489 kts 235°
2026-04-21 06:17 39.13341 -106.90960 33531 ft 491 kts 235°
2026-04-21 06:18 39.09250 -106.98032 33745 ft 493 kts 235°
2026-04-21 06:18 39.07199 -107.01572 33872 ft 493 kts 235°
2026-04-21 06:18 39.05169 -107.05069 34012 ft 493 kts 235°
2026-04-21 06:18 39.03119 -107.08595 34151 ft 493 kts 235°
2026-04-21 06:19 39.01060 -107.12129 34282 ft 493 kts 234°
2026-04-21 06:19 38.99003 -107.15658 34413 ft 492 kts 234°
2026-04-21 06:19 38.96948 -107.19178 34523 ft 491 kts 234°
2026-04-21 06:19 38.94900 -107.22682 34677 ft 491 kts 234°
2026-04-21 06:20 38.92848 -107.26189 34850 ft 490 kts 234°
2026-04-21 06:20 38.90796 -107.29694 34983 ft 490 kts 234°
2026-04-21 06:20 38.89442 -107.32004 35102 ft 489 kts 234°
2026-04-21 06:20 38.87394 -107.35496 35261 ft 489 kts 234°
2026-04-21 06:21 38.85353 -107.38974 35407 ft 488 kts 234°
2026-04-21 06:21 38.83312 -107.42446 35586 ft 487 kts 234°
2026-04-21 06:21 38.81272 -107.45912 35746 ft 486 kts 234°
2026-04-21 06:21 38.79234 -107.49372 35903 ft 485 kts 234°
2026-04-21 06:22 38.77201 -107.52819 36033 ft 485 kts 234°
2026-04-21 06:22 38.75164 -107.56271 36187 ft 484 kts 234°
2026-04-21 06:22 38.73135 -107.59704 36352 ft 484 kts 234°
2026-04-21 06:22 38.71103 -107.63140 36514 ft 483 kts 234°
2026-04-21 06:23 38.69101 -107.66519 36652 ft 483 kts 233°
2026-04-21 06:23 38.67079 -107.69929 36822 ft 482 kts 233°
2026-04-21 06:23 38.65044 -107.73358 36982 ft 481 kts 233°
2026-04-21 06:23 38.63014 -107.76774 37148 ft 481 kts 233°
2026-04-21 06:24 38.60994 -107.80171 37293 ft 480 kts 233°
2026-04-21 06:24 38.58967 -107.83575 37443 ft 480 kts 233°
2026-04-21 06:24 38.56947 -107.86964 37571 ft 479 kts 233°
2026-04-21 06:24 38.54926 -107.90351 37683 ft 479 kts 233°
2026-04-21 06:25 38.52908 -107.93729 37796 ft 478 kts 233°
2026-04-21 06:25 38.50890 -107.97104 37931 ft 478 kts 233°
2026-04-21 06:25 38.48873 -108.00474 38052 ft 477 kts 233°
2026-04-21 06:26 38.44838 -108.07204 38032 ft 476 kts 233°
2026-04-21 06:26 38.40843 -108.13854 38000 ft 475 kts 233°
2026-04-21 06:27 38.36813 -108.20548 37968 ft 475 kts 233°
2026-04-21 06:27 38.32789 -108.27218 37952 ft 474 kts 233°
2026-04-21 06:28 38.28759 -108.33885 37945 ft 474 kts 233°
2026-04-21 06:28 38.24755 -108.40495 37945 ft 474 kts 233°
2026-04-21 06:29 38.20723 -108.47137 37942 ft 474 kts 233°
2026-04-21 06:29 38.16693 -108.53766 37938 ft 473 kts 233°
2026-04-21 06:30 38.12660 -108.60383 37930 ft 473 kts 233°
2026-04-21 06:30 38.08629 -108.66984 37919 ft 472 kts 233°
2026-04-21 06:31 38.04604 -108.73562 37911 ft 472 kts 233°
2026-04-21 06:31 38.00580 -108.80124 37912 ft 470 kts 233°
2026-04-21 06:32 37.96558 -108.86671 37911 ft 470 kts 232°
2026-04-21 06:32 37.92541 -108.93196 37913 ft 469 kts 232°
2026-04-21 06:33 37.88543 -108.99678 37912 ft 469 kts 232°
2026-04-21 06:33 37.84528 -109.06175 37911 ft 468 kts 232°
2026-04-21 06:34 37.80516 -109.12654 37904 ft 467 kts 232°
2026-04-21 06:34 37.76506 -109.19117 37936 ft 467 kts 232°
2026-04-21 06:35 37.72497 -109.25566 37973 ft 467 kts 232°
2026-04-21 06:35 37.68487 -109.32003 38012 ft 466 kts 232°
2026-04-21 06:36 37.64484 -109.38417 38047 ft 465 kts 232°
2026-04-21 06:36 37.60479 -109.44823 38049 ft 465 kts 232°
2026-04-21 06:37 37.56477 -109.51209 38052 ft 464 kts 232°
2026-04-21 06:37 37.52472 -109.57590 38048 ft 463 kts 232°
2026-04-21 06:38 37.48470 -109.63953 38009 ft 463 kts 232°
2026-04-21 06:38 37.44464 -109.70309 37969 ft 463 kts 232°
2026-04-21 06:39 37.40458 -109.76653 37925 ft 464 kts 232°
2026-04-21 06:39 37.36470 -109.82959 37887 ft 463 kts 231°
2026-04-21 06:40 37.32456 -109.89291 37873 ft 463 kts 231°
2026-04-21 06:40 37.28441 -109.95613 37871 ft 463 kts 231°
2026-04-21 06:41 37.24420 -110.01933 37861 ft 463 kts 231°
2026-04-21 06:41 37.20401 -110.08239 37856 ft 462 kts 231°
2026-04-21 06:42 37.16380 -110.14535 37846 ft 462 kts 231°
2026-04-21 06:42 37.12361 -110.20815 37846 ft 462 kts 231°
2026-04-21 06:43 37.08347 -110.27077 37842 ft 461 kts 231°
2026-04-21 06:43 37.04330 -110.33331 37841 ft 460 kts 231°
2026-04-21 06:44 37.00305 -110.39586 37841 ft 460 kts 231°
2026-04-21 06:44 36.96287 -110.45819 37842 ft 459 kts 231°
2026-04-21 06:45 36.92272 -110.52035 37847 ft 459 kts 231°
2026-04-21 06:45 36.88255 -110.58243 37840 ft 458 kts 231°
2026-04-21 06:46 36.84272 -110.64387 37834 ft 458 kts 231°
2026-04-21 06:46 36.80271 -110.70548 37827 ft 456 kts 231°
2026-04-21 06:47 36.76268 -110.76700 37826 ft 456 kts 230°
2026-04-21 06:47 36.72267 -110.82839 37820 ft 455 kts 230°
2026-04-21 06:48 36.68270 -110.88959 37817 ft 455 kts 230°
2026-04-21 06:48 36.64276 -110.95063 37819 ft 454 kts 230°
2026-04-21 06:49 36.60280 -111.01161 37818 ft 454 kts 230°
2026-04-21 06:49 36.56290 -111.07237 37818 ft 453 kts 230°
2026-04-21 06:50 36.52300 -111.13303 37828 ft 453 kts 230°
2026-04-21 06:50 36.48309 -111.19360 37829 ft 452 kts 230°
2026-04-21 06:51 36.44341 -111.25370 37831 ft 452 kts 230°
2026-04-21 06:51 36.40331 -111.31434 37838 ft 451 kts 230°
2026-04-21 06:52 36.36368 -111.37416 37838 ft 451 kts 230°
2026-04-21 06:52 36.32389 -111.43411 37844 ft 450 kts 230°
2026-04-21 06:53 36.28406 -111.49401 37849 ft 449 kts 229°
2026-04-21 06:53 36.24432 -111.55367 37858 ft 448 kts 229°
2026-04-21 06:54 36.20455 -111.61328 37862 ft 448 kts 229°
2026-04-21 06:54 36.16485 -111.67272 37869 ft 447 kts 229°
2026-04-21 06:55 36.12523 -111.73195 37879 ft 446 kts 229°
2026-04-21 06:55 36.08642 -111.79180 37936 ft 446 kts 234°
2026-04-21 06:56 36.05627 -111.85839 37991 ft 449 kts 245°
2026-04-21 06:56 36.03340 -111.93020 38046 ft 449 kts 247°
2026-04-21 06:57 36.01065 -112.00195 38099 ft 448 kts 247°
2026-04-21 06:57 35.98777 -112.07343 38139 ft 447 kts 247°
2026-04-21 06:58 35.96486 -112.14475 38133 ft 446 kts 247°
2026-04-21 06:58 35.94190 -112.21602 38135 ft 446 kts 247°
2026-04-21 06:59 35.91898 -112.28704 38115 ft 445 kts 247°
2026-04-21 06:59 35.89620 -112.35746 38066 ft 444 kts 247°
2026-04-21 07:00 35.87327 -112.42817 38010 ft 444 kts 247°
2026-04-21 07:00 35.85031 -112.49878 37957 ft 443 kts 247°
2026-04-21 07:01 35.82734 -112.56925 37906 ft 443 kts 247°
2026-04-21 07:01 35.79280 -112.67492 37898 ft 443 kts 247°
2026-04-21 07:02 35.76973 -112.74532 37891 ft 443 kts 247°
2026-04-21 07:02 35.74661 -112.81568 37894 ft 443 kts 246°
2026-04-21 07:03 35.72341 -112.88613 37893 ft 443 kts 246°
2026-04-21 07:03 35.70036 -112.95593 37882 ft 444 kts 246°
2026-04-21 07:04 35.67710 -113.02623 37878 ft 444 kts 246°
2026-04-21 07:04 35.65380 -113.09649 37876 ft 443 kts 246°
2026-04-21 07:05 35.63043 -113.16681 37867 ft 444 kts 246°
2026-04-21 07:05 35.60701 -113.23708 37855 ft 444 kts 246°
2026-04-21 07:06 35.58354 -113.30734 37855 ft 445 kts 246°
2026-04-21 07:06 35.56401 -113.36571 37851 ft 445 kts 246°
2026-04-21 07:07 35.53661 -113.44736 37840 ft 445 kts 245°
2026-04-21 07:07 35.51697 -113.50578 37838 ft 445 kts 245°
2026-04-21 07:08 35.49333 -113.57596 37829 ft 445 kts 245°
2026-04-21 07:08 35.46963 -113.64613 37847 ft 445 kts 245°
2026-04-21 07:09 35.44584 -113.71640 37875 ft 446 kts 245°
2026-04-21 07:09 35.42198 -113.78671 37900 ft 447 kts 245°
2026-04-21 07:10 35.39802 -113.85717 37928 ft 448 kts 245°
2026-04-21 07:10 35.37396 -113.92777 37952 ft 449 kts 245°
2026-04-21 07:11 35.34999 -113.99793 37960 ft 449 kts 245°
2026-04-21 07:11 35.32582 -114.06853 37946 ft 449 kts 245°
2026-04-21 07:12 35.30159 -114.13913 37913 ft 449 kts 245°
2026-04-21 07:12 35.27736 -114.20953 37875 ft 449 kts 245°
2026-04-21 07:13 35.25312 -114.27986 37793 ft 448 kts 245°
2026-04-21 07:13 35.22882 -114.35018 37800 ft 448 kts 244°
2026-04-21 07:14 35.20452 -114.42032 37809 ft 448 kts 244°
2026-04-21 07:14 35.18014 -114.49055 37811 ft 448 kts 244°
2026-04-21 07:15 35.15578 -114.56057 37808 ft 447 kts 244°
2026-04-21 07:15 35.13154 -114.63011 37814 ft 447 kts 244°
2026-04-21 07:16 35.10715 -114.69989 37796 ft 447 kts 244°
2026-04-21 07:16 35.08265 -114.76982 37799 ft 447 kts 244°
2026-04-21 07:17 35.05820 -114.83953 37793 ft 446 kts 244°
2026-04-21 07:17 35.03326 -114.90901 37802 ft 445 kts 242°
2026-04-21 07:18 35.00442 -114.97569 37815 ft 444 kts 239°
2026-04-21 07:18 34.97559 -115.04232 37822 ft 444 kts 240°
2026-04-21 07:19 34.94691 -115.10853 37827 ft 444 kts 239°
2026-04-21 07:19 34.91803 -115.17499 37821 ft 443 kts 239°
2026-04-21 07:20 34.88913 -115.24130 37829 ft 443 kts 239°
2026-04-21 07:20 34.86016 -115.30765 37826 ft 443 kts 239°
2026-04-21 07:21 34.83121 -115.37384 37825 ft 442 kts 239°
2026-04-21 07:21 34.80223 -115.43995 37830 ft 442 kts 239°
2026-04-21 07:22 34.77574 -115.50761 37823 ft 443 kts 243°
2026-04-21 07:22 34.75088 -115.57568 37828 ft 443 kts 243°
2026-04-21 07:23 34.72574 -115.64400 37832 ft 442 kts 243°
2026-04-21 07:23 34.70053 -115.71225 37831 ft 442 kts 243°
2026-04-21 07:24 34.67532 -115.78039 37830 ft 442 kts 243°
2026-04-21 07:24 34.65008 -115.84847 37837 ft 442 kts 243°
2026-04-21 07:25 34.62480 -115.91660 37835 ft 442 kts 243°
2026-04-21 07:25 34.59969 -115.98482 37847 ft 442 kts 243°
2026-04-21 07:26 34.57456 -116.05297 37864 ft 442 kts 243°
2026-04-21 07:26 34.54940 -116.12102 37880 ft 443 kts 243°
2026-04-21 07:27 34.52418 -116.18907 37875 ft 441 kts 243°
2026-04-21 07:27 34.51165 -116.22282 37580 ft 438 kts 243°
2026-04-21 07:27 34.49928 -116.25607 37021 ft 439 kts 243°
2026-04-21 07:28 34.48666 -116.28996 36337 ft 441 kts 243°
2026-04-21 07:28 34.47398 -116.32396 35614 ft 443 kts 243°
2026-04-21 07:28 34.46123 -116.35814 34867 ft 446 kts 243°
2026-04-21 07:28 34.44841 -116.39247 34103 ft 449 kts 243°
2026-04-21 07:29 34.43553 -116.42692 33278 ft 451 kts 244°
2026-04-21 07:29 34.42256 -116.46160 32490 ft 452 kts 244°
2026-04-21 07:29 34.40947 -116.49626 31647 ft 453 kts 243°
2026-04-21 07:29 34.39558 -116.53050 30883 ft 453 kts 242°
2026-04-21 07:30 34.38135 -116.56442 30318 ft 449 kts 242°
2026-04-21 07:30 34.36723 -116.59804 29763 ft 446 kts 242°
2026-04-21 07:30 34.35339 -116.63126 29407 ft 437 kts 242°
2026-04-21 07:30 34.34015 -116.66319 29264 ft 424 kts 242°
2026-04-21 07:31 34.32717 -116.69468 29079 ft 413 kts 243°
2026-04-21 07:31 34.31463 -116.72576 28612 ft 408 kts 243°
2026-04-21 07:31 34.30229 -116.75665 28079 ft 406 kts 243°
2026-04-21 07:31 34.29006 -116.78725 27593 ft 403 kts 242°
2026-04-21 07:32 34.27789 -116.81763 27121 ft 400 kts 242°
2026-04-21 07:32 34.26576 -116.84779 26639 ft 397 kts 242°
2026-04-21 07:32 34.25372 -116.87763 26169 ft 395 kts 241°
2026-04-21 07:32 34.24171 -116.90739 25728 ft 392 kts 241°
2026-04-21 07:33 34.22980 -116.93685 25245 ft 389 kts 241°
2026-04-21 07:33 34.21795 -116.96616 24785 ft 386 kts 240°
2026-04-21 07:33 34.20739 -116.99597 24304 ft 387 kts 246°
2026-04-21 07:33 34.19924 -117.02650 23847 ft 385 kts 248°
2026-04-21 07:34 34.19110 -117.05725 23362 ft 383 kts 248°
2026-04-21 07:34 34.18290 -117.08773 22886 ft 380 kts 248°
2026-04-21 07:34 34.17471 -117.11798 22397 ft 377 kts 248°
2026-04-21 07:34 34.16658 -117.14791 21896 ft 374 kts 248°
2026-04-21 07:35 34.15847 -117.17766 21364 ft 371 kts 248°
2026-04-21 07:35 34.15040 -117.20708 20862 ft 368 kts 248°
2026-04-21 07:35 34.14234 -117.23632 20374 ft 365 kts 248°
2026-04-21 07:35 34.13432 -117.26536 19868 ft 362 kts 248°
2026-04-21 07:36 34.12650 -117.29372 19385 ft 359 kts 248°
2026-04-21 07:36 34.11864 -117.32217 18889 ft 357 kts 248°
2026-04-21 07:36 34.11082 -117.35045 18419 ft 354 kts 248°
2026-04-21 07:36 34.10309 -117.37848 18036 ft 347 kts 248°
2026-04-21 07:37 34.09601 -117.40578 17740 ft 338 kts 249°
2026-04-21 07:37 34.08935 -117.43285 17249 ft 336 kts 250°
2026-04-21 07:37 34.08275 -117.45981 16730 ft 334 kts 250°
2026-04-21 07:37 34.07615 -117.48657 16244 ft 331 kts 250°
2026-04-21 07:38 34.06954 -117.51308 15755 ft 329 kts 249°
2026-04-21 07:38 34.06286 -117.53937 15292 ft 327 kts 249°
2026-04-21 07:38 34.05618 -117.56545 14822 ft 324 kts 249°
2026-04-21 07:38 34.04952 -117.59135 14355 ft 322 kts 249°
2026-04-21 07:39 34.04291 -117.61711 13897 ft 320 kts 249°
2026-04-21 07:39 34.03636 -117.64263 13385 ft 317 kts 249°
2026-04-21 07:39 34.02987 -117.66795 12877 ft 315 kts 249°
2026-04-21 07:39 34.02357 -117.69308 12371 ft 313 kts 251°
2026-04-21 07:40 34.01969 -117.71856 11868 ft 313 kts 260°
2026-04-21 07:40 34.01747 -117.74436 11609 ft 303 kts 260°
2026-04-21 07:40 34.01520 -117.76935 11170 ft 299 kts 259°
2026-04-21 07:40 34.01281 -117.79451 10691 ft 296 kts 259°
2026-04-21 07:41 34.01046 -117.81868 10244 ft 293 kts 259°
2026-04-21 07:41 34.00809 -117.84297 10054 ft 292 kts 259°
2026-04-21 07:41 34.00566 -117.86743 9990 ft 295 kts 259°
2026-04-21 07:41 34.00324 -117.89191 9987 ft 294 kts 259°
2026-04-21 07:42 34.00082 -117.91642 9987 ft 294 kts 259°
2026-04-21 07:42 33.99842 -117.94089 9893 ft 295 kts 259°
2026-04-21 07:42 33.99602 -117.96543 9740 ft 293 kts 259°
2026-04-21 07:42 33.99367 -117.98963 9576 ft 287 kts 259°
2026-04-21 07:43 33.99146 -118.01302 9404 ft 274 kts 259°
2026-04-21 07:43 33.98950 -118.03529 9160 ft 263 kts 260°
2026-04-21 07:43 33.98762 -118.05697 8785 ft 258 kts 260°
2026-04-21 07:43 33.98573 -118.07814 8296 ft 255 kts 260°
2026-04-21 07:44 33.98385 -118.09891 7828 ft 246 kts 260°
2026-04-21 07:44 33.98199 -118.11911 7332 ft 237 kts 260°
2026-04-21 07:44 33.98017 -118.13851 6846 ft 230 kts 260°
2026-04-21 07:44 33.97829 -118.15742 6353 ft 225 kts 260°
2026-04-21 07:45 33.97633 -118.17605 5800 ft 223 kts 260°
2026-04-21 07:45 33.97432 -118.19449 5261 ft 221 kts 261°
2026-04-21 07:45 33.97232 -118.21281 4725 ft 221 kts 261°
2026-04-21 07:45 33.97033 -118.23118 4144 ft 222 kts 261°
2026-04-21 07:46 33.96814 -118.24964 3539 ft 224 kts 261°
2026-04-21 07:46 33.96578 -118.26827 2979 ft 224 kts 261°
2026-04-21 07:46 33.96377 -118.28639 2638 ft 214 kts 262°
2026-04-21 07:46 33.96202 -118.30374 2282 ft 201 kts 263°
2026-04-21 07:47 33.96056 -118.31969 2008 ft 183 kts 263°
2026-04-21 07:47 33.95922 -118.33442 1745 ft 169 kts 263°
2026-04-21 07:47 33.95815 -118.34802 1467 ft 162 kts 264°
2026-04-21 07:47 33.95667 -118.36155 1210 ft 163 kts 261°
2026-04-21 07:48 33.95480 -118.37557 996 ft 171 kts 260°
2026-04-21 07:48 33.95334 -118.38934 665 ft 162 kts 263°
2026-04-21 07:48 33.95205 -118.40292 251 ft 162 kts 263°
2026-04-21 07:48 33.95068 -118.41555 131 ft 140 kts 262°
2026-04-21 07:49 33.94978 -118.42397 124 ft 46 kts 261°
2026-04-21 07:49 33.94865 -118.42662 128 ft 29 kts 227°
2026-04-21 07:49 33.94703 -118.42776 130 ft 27 kts 189°
2026-04-21 07:49 33.94636 -118.42682 126 ft 14 kts 82°
2026-04-21 07:50 33.94653 -118.42536 131 ft 20 kts 82°
2026-04-21 07:50 33.94670 -118.42368 131 ft 20 kts 83°
2026-04-21 07:50 33.94686 -118.42198 124 ft 20 kts 83°
2026-04-21 07:50 33.94703 -118.42028 128 ft 21 kts 83°
2026-04-21 07:51 33.94721 -118.41856 131 ft 21 kts 82°
2026-04-21 07:51 33.94740 -118.41684 131 ft 21 kts 83°
2026-04-21 07:51 33.94757 -118.41515 127 ft 17 kts 84°
2026-04-21 07:51 33.94780 -118.41374 128 ft 17 kts 76°
2026-04-21 07:52 33.94802 -118.41231 124 ft 18 kts 84°
2026-04-21 07:52 33.94815 -118.41085 129 ft 17 kts 83°
2026-04-21 07:52 33.94828 -118.40944 124 ft 16 kts 92°
2026-04-21 07:52 33.94772 -118.40914 129 ft 7 kts 212°
2026-04-21 07:53 33.94728 -118.40947 128 ft 7 kts 213°
2026-04-21 07:53 33.94695 -118.40977 125 ft 1 kts 218°
2026-04-21 07:53 33.94690 -118.40982 126 ft 2 kts 220°
2026-04-21 07:53 33.94684 -118.40988 128 ft 1 kts 220°
2026-04-21 07:54 33.94681 -118.40991 122 ft 0 kts 220°